Preview of NWS' New Version of Forecast
This preview is not operational and should not be used for support decisions.
Latest weather observations around

ROOSEVELT (K74V)

Using English Units (Switch to International System of Units)
Date/ Time (MDT) Wind (mph) Vis. (mi) Weather Sky Cond. Temp (°F) Rel. Humidity Wind Chill (°F) Heat Index (°F) Pressure Precip. (in)
Air Dwpt 6 hour Altimeter (inHg) Sea level (inHg) 1 hr 3 hr 6 hr
Max Min
Notice The following observation data may not be complete
Aug 20 07:55 Calm 10 Clear     39      %     30.22        
Notice The following observation data may not be complete
Aug 20 07:35 W 3 10 Clear     39      %     30.22        
Notice The following observation data may not be complete
Aug 20 07:15 WSW 3 10 Clear     37      %     30.2        
Notice The following observation data may not be complete
Aug 20 06:55 Calm 10 Clear     37      %     30.2        
Notice The following observation data may not be complete
Aug 20 06:35 Calm 10 Clear     37      %     30.19        
Notice The following observation data may not be complete
Aug 20 06:15 Calm 10 Clear     37      %     30.18        
Notice The following observation data may not be complete
Aug 20 05:55 WSW 7 10 Clear     37      %     30.17        
Notice The following observation data may not be complete
Aug 20 05:35 WSW 7 10 Clear     37      %     30.17        
Notice The following observation data may not be complete
Aug 20 05:15 W 7 10 Clear     39      %     30.16        
Notice The following observation data may not be complete
Aug 20 04:55 WSW 7 10 Clear     39      %     30.16        
Notice The following observation data may not be complete
Aug 20 04:35 WSW 6 10 Clear     37      %     30.16        
Notice The following observation data may not be complete
Aug 20 04:15 WSW 7 10 Clear     37      %     30.16        
Notice The following observation data may not be complete
Aug 20 03:55 W 8 10 Clear     39      %     30.15        
Notice The following observation data may not be complete
Aug 20 03:35 W 6 10 Clear     37      %     30.15        
Notice The following observation data may not be complete
Aug 20 03:15 W 7 10 Clear     39      %     30.15        
Notice The following observation data may not be complete
Aug 20 02:55 W 5 10 Clear CLR   39      %     30.15        
Notice The following observation data may not be complete
Aug 20 02:35 Calm 10 Clear CLR   39      %     30.14        
Notice The following observation data may not be complete
Aug 20 02:15 W 7 10 Clear     39      %     30.13        
Notice The following observation data may not be complete
Aug 20 01:55 W 6 10 Clear     39      %     30.13        
Notice The following observation data may not be complete
Aug 20 01:35 WSW 5 10 Clear     41      %     30.13        
Notice The following observation data may not be complete
Aug 20 01:15 WSW 7 10 Clear     39      %     30.13        
Notice The following observation data may not be complete
Aug 20 00:55 WSW 7 10 Clear     37      %     30.13        
Notice The following observation data may not be complete
Aug 20 00:35 WSW 5 10 Clear     37      %     30.13        
Notice The following observation data may not be complete
Aug 20 00:15 SW 3 10 Clear     36      %     30.13        
Notice The following observation data may not be complete
Aug 19 23:55 Calm 10 Clear     37      %     30.12        
Notice The following observation data may not be complete
Aug 19 23:35 W 8 10 Clear     41      %     30.12        
Notice The following observation data may not be complete
Aug 19 23:15 W 7 10 Clear     41      %     30.12        
Notice The following observation data may not be complete
Aug 19 22:55 WSW 7 10 Clear     43      %     30.11        
Notice The following observation data may not be complete
Aug 19 22:35 WSW 5 10 Clear     37      %     30.11        
Notice The following observation data may not be complete
Aug 19 22:15 Calm 10 Clear     36      %     30.11        
Notice The following observation data may not be complete
Aug 19 21:55 Calm 10 Clear     37      %     30.1        
Notice The following observation data may not be complete
Aug 19 21:35 Calm 10 Clear     36      %     30.09        
Notice The following observation data may not be complete
Aug 19 21:15 Calm 10 Clear     34      %     30.08        
Notice The following observation data may not be complete
Aug 19 20:55 Calm 10 Clear     36      %     30.08        
Notice The following observation data may not be complete
Aug 19 20:35 WSW 3 10 Clear     34      %     30.07        
Notice The following observation data may not be complete
Aug 19 20:15 SW 5 10 Clear     32      %     30.06        
Notice The following observation data may not be complete
Aug 19 19:55 SSW 6 10 Clear CLR   32      %     30.06        
Aug 19 19:35 SSW 7 10 Clear CLR 86 32     14%   83 30.06        
Notice The following observation data may not be complete
Aug 19 19:15 S 7 10 Clear     34      %     30.06        
Aug 19 18:55 S 8 10 Clear   91 32     12%   87 30.06        
Aug 19 18:35 SSE 6 10 Clear CLR 91 30     11%   87 30.06        
Aug 19 18:15 S 6 10 Clear   95 30     10%   89 30.07        
Aug 19 17:55 S 8 10 Clear   95 28     9%   89 30.07        
Aug 19 17:35 SSW 9 10 Clear   95 30     10%   89 30.07        
Aug 19 17:15 SSW 6 10 Clear   95 27     9%   89 30.07        
Aug 19 16:55 SW 10 10 Clear   95 27     9%   89 30.08        
Aug 19 16:35 SW 6 10 Clear   95 27     9%   89 30.08        
Aug 19 16:15 WSW 13 10 Clear   95 28     9%   89 30.08        
Aug 19 15:55 S 8 10 Clear CLR 95 30     10%   89 30.09        
Aug 19 15:35 S 5 10 Clear   95 28     9%   89 30.1        
Aug 19 15:15 SE 5 10 Clear   93 28     10%   88 30.11        
Aug 19 14:55 SSE 6 10 Clear   93 30     11%   88 30.11        
Aug 19 14:35 E 5 10 Clear   93 30     11%   88 30.11        
Aug 19 14:15 SSE 7 10 Clear   91 30     11%   87 30.12        
Aug 19 13:55 SSE 3 10 Clear   91 30     11%   87 30.13        
Aug 19 13:35 E 7 10 Clear   90 30     12%   85 30.13        
Aug 19 13:15 ESE 6 10 Clear   90 30     12%   85 30.14        
Aug 19 12:55 ESE 7 10 Clear   90 32     13%   86 30.15        
Aug 19 12:35 ESE 6 10 Clear CLR 88 32     14%   84 30.15        
Aug 19 12:15 ESE 7 10 Clear   86 32     14%   83 30.16        
Notice The following observation data may not be complete
Aug 19 11:55 E 3 10 Clear     32      %     30.17        
Aug 19 11:35 ENE 6 10 Clear   82 32     16%   80 30.18        
Aug 19 11:15 ENE 5 10 Clear   81 34     18%   79 30.18        
Aug 19 10:55 E 5 10 Clear CLR 79 34     20%   77 30.19        
Aug 19 10:35 E 5 10 Clear CLR 77 34     21%   75 30.19        
Aug 19 10:15 E 3 10 Clear   73 32     22%   71 30.18        
Aug 19 09:55 Calm 10 Clear   73 32     22%   71 30.18        
Aug 19 09:35 Calm 10 Clear CLR 72 32     23%   70 30.18        
Aug 19 09:15 Calm 10 Clear   70 34     26%     30.18        
Aug 19 08:55 Calm 10 Clear   68 37     32%     30.18        
Aug 19 08:35 Calm 10 Clear   64 37     37%     30.17        
Aug 19 08:15 Calm 10 Clear   64 34     32%     30.17        
Aug 19 07:55 Calm 10 Clear   61 36     39%     30.16        
Notice The following observation data may not be complete
Aug 19 07:35 Calm 10 Clear     34      %     30.16        
Notice The following observation data may not be complete
Aug 19 07:15 Calm 10 Clear     34      %     30.15        
Notice The following observation data may not be complete
Aug 19 06:55 Calm 10 Clear CLR   34      %     30.15        
Notice The following observation data may not be complete
Aug 19 06:35 WSW 5 10 Clear     34      %     30.14        
Notice The following observation data may not be complete
Aug 19 06:15 WSW 6 10 Clear     34      %     30.13        
Notice The following observation data may not be complete
Aug 19 05:55 Calm 10 Clear     34      %     30.12        
Notice The following observation data may not be complete
Aug 19 05:35 Calm 10 Clear CLR   34      %     30.12        
Notice The following observation data may not be complete
Aug 19 05:15 W 6 10 Clear     36      %     30.11        
Notice The following observation data may not be complete
Aug 19 04:55 WSW 5 10 Clear     36      %     30.11        
Notice The following observation data may not be complete
Aug 19 04:35 W 7 10 Clear     36      %     30.1        
Notice The following observation data may not be complete
Aug 19 04:15 W 7 10 Clear     36      %     30.09        
Notice The following observation data may not be complete
Aug 19 03:55 W 6 10 Clear     36      %     30.09        
Notice The following observation data may not be complete
Aug 19 03:35 WSW 8 10 Clear     37      %     30.09        
Notice The following observation data may not be complete
Aug 19 03:15 WSW 6 10 Clear     37      %     30.08        
Notice The following observation data may not be complete
Aug 19 02:55 Calm 10 Clear     37      %     30.08        
Notice The following observation data may not be complete
Aug 19 02:35 W 6 10 Clear     37      %     30.08        
Notice The following observation data may not be complete
Aug 19 02:15 W 7 10 Clear     37      %     30.07        
Notice The following observation data may not be complete
Aug 19 01:55 WSW 6 10 Clear     39      %     30.07        
Notice The following observation data may not be complete
Aug 19 01:35 W 5 10 Clear     37      %     30.06        
Notice The following observation data may not be complete
Aug 19 01:15 WSW 6 10 Clear     39      %     30.07        
Notice The following observation data may not be complete
Aug 19 00:55 WSW 7 10 Clear     39      %     30.07        
Notice The following observation data may not be complete
Aug 19 00:35 W 5 10 Clear     39      %     30.07        
Notice The following observation data may not be complete
Aug 19 00:15 W 5 10 Clear     37      %     30.07        
Notice The following observation data may not be complete
Aug 18 23:55 W 6 10 Clear     37      %     30.07        
Notice The following observation data may not be complete
Aug 18 23:35 W 5 10 Clear CLR   36      %     30.07        
Notice The following observation data may not be complete
Aug 18 23:15 W 7 10 Clear     37      %     30.07        
Notice The following observation data may not be complete
Aug 18 22:55 W 7 10 Clear     41      %     30.06        
Notice The following observation data may not be complete
Aug 18 22:35 WSW 7 10 Clear     41      %     30.06        
Notice The following observation data may not be complete
Aug 18 22:15 W 5 10 Clear     43      %     30.05        
Notice The following observation data may not be complete
Aug 18 21:55 WSW 5 10 Clear     41      %     30.05        
Notice The following observation data may not be complete
Aug 18 21:35 SW 6 10 Clear     41      %     30.04        
Notice The following observation data may not be complete
Aug 18 21:15 WSW 7 10 Clear     41      %     30.03        
Notice The following observation data may not be complete
Aug 18 20:55 Calm 10 Clear     43      %     30.02        
Notice The following observation data may not be complete
Aug 18 20:35 WSW 6 10 Clear CLR   43      %     30.01        
Aug 18 20:15 WSW 5 10 Clear   81 34     18%   79 30        
Aug 18 19:55 WNW 6 10 Clear   88 28     12%   84 29.99        
Aug 18 19:35 NW 5 10 Clear   90 28     11%   85 30        
Aug 18 19:15 WNW 9 10 Clear   90 28     11%   85 30        
Aug 18 18:55 WNW 9 10 Clear   91 28     11%   87 30        
Aug 18 18:35 WNW 9 10 Clear CLR 91 28     11%   87 30        
Aug 18 18:15 WNW 10 10 Clear   93 28     10%   88 30        
Aug 18 17:55 W 10 10 Clear   95 28     9%   89 30        
Aug 18 17:35 NW 13 10 Clear   95 27     9%   89 30        
Aug 18 17:15 WNW 16 10 Clear   95 27     9%   89 30        
Aug 18 16:55 W 15 10 Clear   95 28     9%   89 30        
Aug 18 16:35 W 9 10 Clear   95 27     9%   89 30        
Aug 18 16:15 WSW 16 10 Clear   95 27     9%   89 30.01        
Aug 18 15:55 W 14 10 Clear CLR 95 27     9%   89 30.01        
Aug 18 15:35 W 16 10 Clear   95 28     9%   89 30.02        
Aug 18 15:15 W 12 10 Clear   95 27     9%   89 30.03        
Aug 18 14:55 WNW 16 10 Clear CLR 95 27     9%   89 30.04        
Aug 18 14:35 W 12 10 Clear   95 28     9%   89 30.04        
Aug 18 14:15 W 18 10 Clear CLR 95 27     9%   89 30.04        
Aug 18 13:55   10 Clear CLR 95        %     30.04        
Aug 18 13:35   10 Clear   93 28     10%   88 30.05        
Aug 18 13:15 WNW 16 10 Clear   91 30     11%   87 30.05        
Aug 18 12:55   10 Clear   91 30     11%   87 30.06        
Aug 18 12:35 SW 7 10 Clear CLR 90 36     15%   86 30.07        
Aug 18 12:15 SSE 3 10 Clear   86 37     18%   83 30.07        
Aug 18 11:55 SE 3 10 Clear   82 37     20%   80 30.08        
Aug 18 11:35 E 3 10 Clear   81 37     21%   79 30.09        
Aug 18 11:15 E 3 10 Clear   79 37     23%   77 30.09        
Aug 18 10:55 Calm 10 Clear CLR 77 36     22%   75 30.09        
Aug 18 10:35 ENE 3 10 Clear CLR 77 37     24%   76 30.09        
Aug 18 10:15 E 3 10 Clear   73 36     25%   72 30.09        
Aug 18 09:55 Calm 10 Clear   73 36     25%   72 30.09        
Aug 18 09:35 Calm 10 Clear   72 39     31%   70 30.08        
Aug 18 09:15 S 3 10 Clear   70 39     33%     30.08        
Aug 18 08:55 Calm 10 Clear CLR 68 37     32%     30.08        
Aug 18 08:35 SW 3 10 Clear   68 36     30%     30.08        
Aug 18 08:15 WSW 6 10 Clear   63 37     39%     30.08        
Notice The following observation data may not be complete
Aug 18 07:55 Calm 10 Clear     39      %     30.07        
Notice The following observation data may not be complete
Aug 18 07:35 WSW 3 10 Clear CLR   39      %     30.06        
Notice The following observation data may not be complete
Aug 18 07:15 WSW 3 10 Clear     39      %     30.06        
Notice The following observation data may not be complete
Aug 18 06:55 Calm 10 Clear CLR   39      %     30.05        
Notice The following observation data may not be complete
Aug 18 06:35 SW 7 10 Clear CLR   37      %     30.05        
Notice The following observation data may not be complete
Aug 18 06:15 WSW 5 10 Clear     37      %     30.04        
Notice The following observation data may not be complete
Aug 18 05:55 Calm 10 Clear     37      %     30.04        
Notice The following observation data may not be complete
Aug 18 05:35 W 3 10 Clear     37      %     30.03        
Notice The following observation data may not be complete
Aug 18 05:15 Calm 10 Clear     39      %     30.02        
Notice The following observation data may not be complete
Aug 18 04:55 Calm 10 Clear     37      %     30.02        
Notice The following observation data may not be complete
Aug 18 04:35 S 3 10 Clear CLR   37      %     30.01        
Notice The following observation data may not be complete
Aug 18 04:15 ESE 5 10 Clear     39      %     30.01        
Notice The following observation data may not be complete
Aug 18 03:55 E 7 10 Clear     37      %     30.01        
Aug 18 03:35 E 3 10 Clear   63 34     34%     30        
Notice The following observation data may not be complete
Aug 18 03:15 SE 3 10 Clear     37      %     29.99        
Notice The following observation data may not be complete
Aug 18 02:55 Calm 10 Clear CLR   36      %     29.99        
Notice The following observation data may not be complete
Aug 18 02:35 W 3 10 Clear     39      %     29.99        
Notice The following observation data may not be complete
Aug 18 02:15 Calm 10 Clear     39      %     30        
Notice The following observation data may not be complete
Aug 18 01:55 WSW 3 10 Clear     41      %     29.99        
Notice The following observation data may not be complete
Aug 18 01:35 WSW 3 10 Clear     41      %     29.99        
Notice The following observation data may not be complete
Aug 18 01:15 WSW 6 10 Clear     43      %     29.99        
Notice The following observation data may not be complete
Aug 18 00:55 SW 5 10 Clear     41      %     29.99        
Aug 18 00:35 Calm 10 Clear   64 37     37%     29.99        
Notice The following observation data may not be complete
Aug 18 00:15 Calm 10 Clear     39      %     30        
Notice The following observation data may not be complete
Aug 17 23:55 W 9 10 Clear     41      %     29.99        
Notice The following observation data may not be complete
Aug 17 23:35 W 6 10 Clear     43      %     29.99        
Notice The following observation data may not be complete
Aug 17 23:15 SSW 3 10 Clear     43      %     29.99        
Notice The following observation data may not be complete
Aug 17 22:55 Calm 10 Clear     43      %     29.98        
Notice The following observation data may not be complete
Aug 17 22:35 WSW 3 10 Clear     43      %     29.98        
Notice The following observation data may not be complete
Aug 17 22:15 WSW 6 10 Clear     45      %     29.97        
Notice The following observation data may not be complete
Aug 17 21:55 W 6 10 Clear     45      %     29.96        
Notice The following observation data may not be complete
Aug 17 21:35 W 5 10 Clear     45      %     29.95        
Notice The following observation data may not be complete
Aug 17 21:15 W 5 10 Clear     43      %     29.95        
Notice The following observation data may not be complete
Aug 17 20:55 SW 5 10 Clear CLR   43      %     29.94        
Notice The following observation data may not be complete
Aug 17 20:35 WSW 5 10 Clear     41      %     29.94        
Notice The following observation data may not be complete
Aug 17 20:15 W 5 10 Clear     37      %     29.92        
Aug 17 19:55 W 6 10 Clear   82 34     17%   80 29.92        
Aug 17 19:35 WNW 10 10 Clear CLR 86 32     14%   83 29.92        
Aug 17 19:15 W 16 10 Clear CLR 86 32     14%   83 29.92        
Aug 17 18:55 W 16 10 Clear CLR 88 32     14%   84 29.92        
Aug 17 18:35 W 20 10 Clear and Windy CLR 88 32     14%   84 29.91        
Aug 17 18:15 W 21 10 Clear and Windy   88 32     14%   84 29.92        
Aug 17 17:55 W 22 10 Clear and Windy   88 32     14%   84 29.92        
Aug 17 17:35   10 Clear   90 30     12%   85 29.92        
Aug 17 17:15 W 29 10 Clear and Breezy   90 32     13%   86 29.92        
Aug 17 16:55 W 28 10 Clear and Breezy   90 32     13%   86 29.92        
Aug 17 16:35 W 28 10 Clear and Breezy   90 32     13%   86 29.92        
Aug 17 16:15 W 25 10 Clear and Breezy   90 32     13%   86 29.92        
Aug 17 15:55 W 28 10 Clear and Breezy   90 32     13%   86 29.93        
Aug 17 15:35 W 29 10 Clear and Breezy   90 32     13%   86 29.93        
Aug 17 15:15 WSW 26 10 Clear and Breezy   90 32     13%   86 29.94        
Aug 17 14:55 W 25 10 Clear and Breezy   90 32     13%   86 29.94        
Aug 17 14:35 WSW 24 10 Clear and Windy   90 32     13%   86 29.94        
Aug 17 14:15 WSW 22 10 Clear and Windy   90 32     13%   86 29.94        
Aug 17 13:55 W 18 10 Clear   90 32     13%   86 29.95        
Aug 17 13:35 W 17 10 Clear   88 32     14%   84 29.96        
Aug 17 13:15 WSW 20 10 Clear   88 34     15%   84 29.97        
Aug 17 12:55 WSW 16 7 Clear   86 41     21%   83 29.97        
Aug 17 12:35 SSE 7 10 Clear   81 45     28%   80 29.98        
Aug 17 12:15 E 7 10 Clear   77 46     34%   76 29.99        
Notice The following observation data may not be complete
Aug 17 11:55 E 7 10 Clear CLR   46      %     29.99        
Aug 17 11:35 E 5 10 Clear CLR 75 46     36%   74 30        
Notice The following observation data may not be complete
Aug 17 11:15 NE 5 10 Clear     50      %     30.01        
Notice The following observation data may not be complete
Aug 17 10:55 Calm 10 Clear     50      %     30.01        
Aug 17 10:35 Calm 10 Clear CLR 72 50     46%   71 30        
Aug 17 10:15 WSW 5 10 Clear CLR 70 50     49%     30        
Notice The following observation data may not be complete
Aug 17 09:55 W 3 10 Clear     48      %     30        
Aug 17 09:35 SW 7 10 Clear   66 50     56%     30.01        
Notice The following observation data may not be complete
Aug 17 09:15 WSW 9 10 Clear     50      %     30        
Notice The following observation data may not be complete
Aug 17 08:55 WSW 6 10 Clear     50      %     29.99        
Aug 17 08:35 WSW 9 10 Clear   64 52     64%     29.99        
Aug 17 08:15 Calm 10 Clear   64 48     56%     29.99        
Notice The following observation data may not be complete
Aug 17 07:55 W 9 10 Clear CLR   48      %     29.99        
Aug 17 07:35 W 8 10 Clear   66 46     49%     29.98        
Notice The following observation data may not be complete
Aug 17 07:15   10 Light Rain SCT041 SCT055 BKN110   46      %     29.96        
May 15 11:15 Calm 10 Clear   66 32     28%     30.11        
May 14 14:15 WSW 3 10 Clear   72 28     20%   69 30.03        
May 14 06:55 Calm 10 Clear   43 34     70%     30.09        
May 14 04:55 WSW 5 10 Clear   45 34     66% 42   30.08        
May 13 22:15 W 15 10 Clear   59 32     36%     30.08        
May 13 20:35 WSW 6 10 Clear   61 28     29%     30        
May 13 19:15   10 Clear   64 27     24%     29.97        
May 13 15:15   10 Clear   70 23     17%     29.99        
May 13 13:15 E 3 10 Clear   68 27     21%     30.01        
May 13 10:55 Calm 10 Clear   59 28     31%     30.05        
May 12 18:55 W 23 10 Clear and Windy   59 32     36%     29.85        
May 12 15:15 S 21 10 Clear and Windy   72 25     17%   69 29.77        
Notice The following observation data may not be complete
May 12 06:15   10 Clear            %              
May 12 04:35 NNW 3 10 Clear   46 43     87% 45   29.8        
May 11 23:55 WSW 9 10 Clear   50 43     76% 46   29.84        
May 11 23:15 WSW 8 10 Clear   50 43     76% 47   29.84        
May 11 19:55   10 Clear   55 43     62%     29.74        
May 11 17:35 WNW 20 10 Clear   61 36     39%     29.68        
May 11 12:55 SSW 6 10 Clear   73 32     22%   71 29.65        
May 11 12:35 ESE 6 10 Clear   72        %     29.67        
May 11 12:15 SSE 6 10 Clear   72 36     27%   70 29.69